Location: Spruce Knob
(38.6995°N, 79.5330°W)
Time: 15:50:44
(UTC-05:00)

Vanguard 2 - All Passes

Search period start: 25 January 2022 00:00
Search period end: 04 February 2022 00:00
Orbit: 553 x 2936 km, 32.9° (Epoch: 25 January)

Date Brightness Start Highest point End Pass type
(mag) Time Alt. Az. Time Alt. Az. Time Alt. Az.
25 Jan - 00:02:02 10° W 00:14:58 65° S 00:32:32 10° ESE visible
25 Jan - 02:12:21 10° W 02:26:47 44° SSW 02:42:50 10° SE visible
25 Jan - 04:27:02 10° W 04:37:22 19° SW 04:47:27 10° S visible
25 Jan - 18:00:04 10° SSE 18:03:45 15° SE 18:08:19 10° ESE visible
25 Jan - 20:03:35 10° SW 20:11:14 47° SSE 20:23:39 10° E visible
25 Jan - 22:10:52 10° WSW 22:21:11 68° S 22:37:22 10° E visible
26 Jan - 00:19:43 10° W 00:32:42 60° SSW 00:50:02 10° ESE visible
26 Jan - 02:30:28 10° W 02:44:15 37° SSW 02:59:24 10° SSE visible
26 Jan - 04:48:24 10° WSW 04:54:32 13° SW 05:00:36 10° SSW visible
26 Jan - 18:15:48 10° S 18:20:42 21° SE 18:27:27 10° E visible
26 Jan - 20:20:49 10° SW 20:28:39 54° SSE 20:41:38 10° E visible
26 Jan - 22:28:25 10° W 22:38:54 68° S 22:55:12 10° ESE visible
27 Jan - 00:37:27 10° W 00:50:23 54° SSW 01:07:22 10° SE visible
27 Jan - 02:48:52 10° W 03:01:39 30° SW 03:15:32 10° SSE visible
27 Jan - 18:32:15 10° SSW 18:37:45 28° SE 18:45:54 10° E visible
27 Jan - 20:38:10 10° WSW 20:46:10 60° SSE 20:59:34 10° E visible
27 Jan - 22:46:01 10° W 22:56:37 65° S 23:12:57 10° ESE visible
28 Jan - 00:55:16 10° W 01:08:00 47° SSW 01:24:25 10° SE visible
28 Jan - 03:07:47 10° W 03:19:01 23° SW 03:31:04 10° S visible
28 Jan - 18:49:04 10° SW 18:54:56 36° SSE 19:04:04 10° E visible
28 Jan - 20:55:36 10° WSW 21:03:45 64° S 21:17:28 10° E visible
28 Jan - 23:03:38 10° W 23:14:20 61° SSW 23:30:35 10° ESE visible
29 Jan - 01:13:14 10° W 01:25:35 40° SSW 01:41:12 10° SSE visible
29 Jan - 03:27:41 10° WSW 03:36:22 16° SW 03:45:31 10° S visible
29 Jan - 17:03:08 10° SSE 17:05:04 12° SE 17:07:16 10° ESE daylight
29 Jan - 19:06:09 10° SW 19:12:14 44° SSE 19:22:05 10° E visible
29 Jan - 21:13:05 10° WSW 21:21:23 65° S 21:35:19 10° E visible
29 Jan - 23:21:18 10° W 23:32:01 55° SSW 23:48:02 10° SE visible
30 Jan - 01:31:24 10° W 01:43:08 32° SSW 01:57:35 10° SSE visible
30 Jan - 03:51:18 10° SW 03:53:45 10° SW 03:56:13 10° SW visible
30 Jan - 17:18:31 10° S 17:22:05 18° SE 17:26:42 10° ESE daylight
30 Jan - 19:23:23 10° WSW 19:29:38 51° SSE 19:40:00 10° E visible
30 Jan - 21:30:37 10° W 21:39:03 64° S 21:53:07 10° ESE visible
30 Jan - 23:39:01 10° W 23:49:41 48° SSW 00:05:16 10° SE visible
31 Jan - 01:49:57 10° W 02:00:39 25° SW 02:13:26 10° SSE visible
31 Jan - 17:34:56 10° SSW 17:39:12 24° SE 17:45:09 10° E daylight
31 Jan - 19:40:45 10° WSW 19:47:08 56° SSE 19:57:53 10° E visible
31 Jan - 21:48:11 10° W 21:56:43 60° S 22:10:49 10° ESE visible
31 Jan - 23:56:52 10° W 00:07:21 41° SSW 00:22:12 10° SE night (unlit)
01 Feb - 02:09:11 10° WSW 02:18:09 19° SW 02:28:29 10° S visible
01 Feb - 17:51:48 10° SW 17:56:24 32° SSE 18:03:15 10° E daylight
01 Feb - 19:58:10 10° WSW 20:04:41 59° S 20:15:44 10° E visible
01 Feb - 22:05:47 10° W 22:14:24 55° SSW 22:28:22 10° ESE visible
02 Feb - 00:14:52 10° W 00:24:58 34° SSW 00:38:48 10° SSE night (unlit)
02 Feb - 02:30:04 10° WSW 02:35:41 13° SW 02:41:47 10° SSW visible
02 Feb - 18:08:53 10° SW 18:13:44 39° SSE 18:21:11 10° E visible
02 Feb - 20:15:39 10° WSW 20:22:16 60° S 20:33:31 10° ESE visible
02 Feb - 22:23:26 10° W 22:32:03 48° SSW 22:45:43 10° SE visible
03 Feb - 00:33:11 10° W 00:42:35 27° SSW 00:54:55 10° SSE night (unlit)
03 Feb - 16:21:13 10° S 16:23:47 15° SE 16:26:48 10° ESE daylight
03 Feb - 18:26:09 10° WSW 18:31:09 46° SSE 18:39:03 10° E visible
03 Feb - 20:33:11 10° W 20:39:53 57° S 20:51:14 10° ESE visible
03 Feb - 22:41:11 10° W 22:49:43 41° SSW 23:02:48 10° SE visible
